Durant, OK

4:33 PM CST on December 05, 2019 (GMT -0600)
Eaker

Weather History for KDUA - October, 2019

Change the Weather History Date:

Monday, October 14, 2019

  Actual Average (KMLC) Record (KMLC)
Temperature  
Mean Temperature 66 °F -  
Max Temperature 78 °F 76 °F 92 °F (1963)
Min Temperature 55 °F 53 °F 32 °F (1978)
Cooling Degree Days 2    
Growing Degree Days 16 (Base 50)    
Moisture  
Dew Point 57 °F    
Average Humidity 76    
Maximum Humidity 88    
Minimum Humidity 53    
Precipitation  
Precipitation 0.00 in - - ()
Sea Level Pressure  
Sea Level Pressure 30.00 in    
Wind  
Wind Speed 6 mph (SE)    
Max Wind Speed 13 mph    
Max Gust Speed 16 mph    
Visibility 10 miles    
Events      
Averages and records for this station are not official NWS values.
T = Trace of Precipitation, MM = Missing Value Source: NWS Daily Summary

Daily Weather History Graph

Daily Weather History Graph

Search for Another Location

Airport or City:

Astronomy

Oct. 14, 2019 Rise Set
Actual Time 7:29 AM CDT 6:52 PM CDT
Civil Twilight 7:04 AM CDT 7:18 PM CDT
Nautical Twilight 6:35 AM CDT 7:47 PM CDT
Astronomical Twilight 6:06 AM CDT 8:15 PM CDT
Moon 7:44 PM CDT (10/14) 8:03 AM CDT (10/14)
Length of Visible Light 12h 13m
Length of Day
11h 23m
Full, 99% of the Moon is Illuminated
Oct 14
Full
Oct 21
Last Quarter
Oct 27
New
Nov 4
First Quarter
Nov 12
Full

Hourly Weather History & Observations

Time (CDT) Temp. Dew Point Humidity Pressure Visibility Wind Dir Wind Speed Gust Speed Precip Events Conditions
12:17 AM 57.2 °F 51.8 °F 82% 30.03 in 10.0 mi SE 5.8 mph - N/A   Clear
12:35 AM 57.2 °F 51.8 °F 82% 30.03 in 10.0 mi SE 4.6 mph - N/A   Clear
1:16 AM 57.2 °F 51.8 °F 82% 30.03 in 10.0 mi SE 4.6 mph - N/A   Clear
1:37 AM 55.4 °F 51.8 °F 88% 30.03 in 10.0 mi SE 4.6 mph - N/A   Clear
1:57 AM 55.4 °F 51.8 °F 88% 30.03 in 10.0 mi ESE 3.5 mph - N/A   Clear
2:15 AM 55.4 °F 51.8 °F 88% 30.03 in 10.0 mi ESE 3.5 mph - N/A   Clear
2:35 AM 55.4 °F 51.8 °F 88% 30.03 in 10.0 mi East 3.5 mph - N/A   Clear
2:55 AM 55.4 °F 51.8 °F 88% 30.03 in 10.0 mi East 3.5 mph - N/A   Clear
3:36 AM 55.4 °F 51.8 °F 88% 30.02 in 10.0 mi East 3.5 mph - N/A   Clear
3:55 AM 55.4 °F 51.8 °F 88% 30.02 in 10.0 mi East 4.6 mph - N/A   Clear
4:35 AM 55.4 °F 51.8 °F 88% 30.02 in 10.0 mi East 4.6 mph - N/A   Clear
4:56 AM 55.4 °F 51.8 °F 88% 30.03 in 10.0 mi East 3.5 mph - N/A   Clear
5:15 AM 55.4 °F 51.8 °F 88% 30.02 in 10.0 mi ESE 4.6 mph - N/A   Clear
5:38 AM 55.4 °F 51.8 °F 88% 30.03 in 10.0 mi East 4.6 mph - N/A   Clear
5:55 AM 55.4 °F 51.8 °F 88% 30.03 in 10.0 mi East 4.6 mph - N/A   Clear
6:15 AM 55.4 °F 51.8 °F 88% 30.03 in 10.0 mi East 4.6 mph - N/A   Clear
6:35 AM 55.4 °F 51.8 °F 88% 30.03 in 10.0 mi ESE 4.6 mph - N/A   Clear
6:55 AM 55.4 °F 51.8 °F 88% 30.04 in 10.0 mi ESE 5.8 mph - N/A   Clear
7:15 AM 55.4 °F 51.8 °F 88% 30.03 in 10.0 mi ESE 5.8 mph - N/A   Clear
7:36 AM 55.4 °F 51.8 °F 88% 30.04 in 10.0 mi ESE 4.6 mph - N/A   Clear
7:55 AM 55.4 °F 51.8 °F 88% 30.04 in 10.0 mi ESE 4.6 mph - N/A   Clear
8:16 AM 55.4 °F 51.8 °F 88% 30.03 in 10.0 mi SE 4.6 mph - N/A   Clear
8:35 AM 57.2 °F 51.8 °F 82% 30.04 in 10.0 mi ESE 5.8 mph - N/A   Clear
8:57 AM 59.0 °F 51.8 °F 77% 30.04 in 10.0 mi ESE 8.1 mph - N/A   Clear
9:16 AM 60.8 °F 51.8 °F 72% 30.05 in 10.0 mi SE 8.1 mph - N/A   Clear
9:56 AM 62.6 °F 53.6 °F 72% 30.04 in 10.0 mi SE 8.1 mph - N/A   Clear
10:37 AM 66.2 °F 53.6 °F 64% 30.05 in 10.0 mi SE 8.1 mph - N/A   Clear
10:55 AM 66.2 °F 53.6 °F 64% 30.04 in 10.0 mi SE 6.9 mph - N/A   Clear
11:16 AM 69.8 °F 55.4 °F 60% 30.03 in 10.0 mi SE 9.2 mph - N/A   Clear
11:35 AM 71.6 °F 55.4 °F 57% 30.03 in 10.0 mi SE 8.1 mph - N/A   Clear
11:55 AM 71.6 °F 57.2 °F 60% 30.02 in 10.0 mi SSE 10.4 mph - N/A   Clear
12:55 PM 75.2 °F 57.2 °F 53% 30.00 in 10.0 mi SSE 9.2 mph - N/A   Clear
1:15 PM 75.2 °F 59.0 °F 57% 29.99 in 10.0 mi SSE 10.4 mph - N/A   Clear
1:57 PM 75.2 °F 59.0 °F 57% 29.98 in 10.0 mi SE 10.4 mph - N/A   Clear
2:15 PM 75.2 °F 60.8 °F 61% 29.97 in 10.0 mi SSE 11.5 mph - N/A   Clear
2:56 PM 78.8 °F 60.8 °F 54% 29.95 in 10.0 mi SSE 12.7 mph - N/A   Clear
3:36 PM 78.8 °F 60.8 °F 54% 29.95 in 10.0 mi SSE 12.7 mph 16.1 mph N/A   Clear
4:18 PM 77.0 °F 62.6 °F 61% 29.93 in 10.0 mi SSE 12.7 mph 16.1 mph N/A   Clear
4:35 PM 77.0 °F 62.6 °F 61% 29.93 in 10.0 mi SSE 12.7 mph - N/A   Clear
4:55 PM 77.0 °F 62.6 °F 61% 29.93 in 10.0 mi SSE 10.4 mph - N/A   Clear
5:15 PM 75.2 °F 62.6 °F 65% 29.93 in 10.0 mi SE 10.4 mph - N/A   Clear
5:38 PM 73.4 °F 60.8 °F 65% 29.94 in 10.0 mi SE 9.2 mph - N/A   Clear
5:55 PM 73.4 °F 60.8 °F 65% 29.94 in 10.0 mi SE 11.5 mph - N/A   Clear
6:15 PM 71.6 °F 60.8 °F 69% 29.95 in 10.0 mi SSE 6.9 mph - N/A   Scattered Clouds
6:56 PM 71.6 °F 60.8 °F 69% 29.95 in 10.0 mi SSE 9.2 mph - N/A   Overcast
7:15 PM 71.6 °F 62.6 °F 73% 29.95 in 10.0 mi SSE 10.4 mph - N/A   Overcast
8:18 PM 69.8 °F 64.4 °F 83% 29.96 in 10.0 mi SSE 12.7 mph - N/A   Overcast
8:38 PM 69.8 °F 64.4 °F 83% 29.96 in 10.0 mi South 12.7 mph - N/A   Overcast
9:16 PM 69.8 °F 64.4 °F 83% 29.97 in 7.0 mi SSE 12.7 mph - N/A   Overcast
9:58 PM 69.8 °F 64.4 °F 83% 29.98 in 10.0 mi South 10.4 mph - N/A   Overcast
10:16 PM 69.8 °F 66.2 °F 88% 29.99 in 10.0 mi SSE 6.9 mph - N/A   Overcast
10:36 PM 69.8 °F 64.4 °F 83% 29.98 in 5.0 mi SSE 8.1 mph - N/A   Light Drizzle
10:56 PM 69.8 °F 64.4 °F 83% 29.97 in 10.0 mi SSE 6.9 mph - N/A   Overcast
11:36 PM 69.8 °F 66.2 °F 88% 29.97 in 10.0 mi SSE 9.2 mph - N/A   Overcast